Location: Holcomb Observatory
(44.4922°N, 73.1654°W)
Time: 21:19:49
(UTC-04:00)

Cosmos 2360 Rocket - Visible Passes

Search period start: 29 June 2016 00:00
Search period end: 09 July 2016 00:00
Orbit: 834 x 845 km, 71.0° (Epoch: 29 June)

Date Brightness Start Highest point End Pass type
(mag) Time Alt. Az. Time Alt. Az. Time Alt. Az.
29 Jun 4.3 22:27:26 10° WNW 22:31:16 19° W 22:35:06 10° SW visible
30 Jun 4.3 22:11:39 10° NW 22:15:39 20° W 22:19:39 10° SW visible
01 Jul 4.3 21:55:52 10° NW 22:00:02 21° W 22:04:12 10° SSW visible
02 Jul 4.2 21:40:06 10° NW 21:44:25 23° W 21:48:44 10° SSW visible
03 Jul 4.2 21:24:20 10° NW 21:28:47 24° WSW 21:33:15 10° SSW visible
04 Jul 4.2 21:08:35 10° NW 21:13:10 26° WSW 21:17:44 10° SSW visible
